| time (UTC) | temp F | wind direction | speed knots | gust knots | rain 1hr in | rain 24hr in | rain mn in | humidity % | barometer mb |
| 20260504050506 | 40 | 315 | 3.5 | 8.7 | 0.00 | 0.14 | 0.00 | 94 | 1007.9 |
| 20260504050020 | 39 | 5 | 1.7 | 8.7 | 0.00 | 0.14 | 0.00 | 94 | 1007.9 |
| 20260504045507 | 39 | 263 | 2.6 | 8.7 | 0.00 | 0.14 | 0.00 | 94 | 1008.0 |
| 20260504045007 | 39 | 309 | 4.3 | 8.7 | 0.00 | 0.14 | 0.00 | 94 | 1007.9 |
| 20260504044519 | 39 | 285 | 2.6 | 6.1 | 0.00 | 0.14 | 0.00 | 94 | 1007.9 |
| 20260504044007 | 39 | 244 | 0.9 | 5.2 | 0.01 | 0.14 | 0.00 | 94 | 1007.9 |
| 20260504043511 | 39 | 225 | 1.7 | 5.2 | 0.01 | 0.14 | 0.00 | 94 | 1007.9 |
| 20260504043016 | 39 | 253 | 1.7 | 5.2 | 0.01 | 0.14 | 0.00 | 94 | 1007.9 |
| 20260504042508 | 39 | 302 | 1.7 | 5.2 | 0.01 | 0.14 | 0.00 | 94 | 1007.9 |
| 20260504042011 | 38 | 286 | 1.7 | 5.2 | 0.02 | 0.14 | 0.00 | 94 | 1007.8 |
| 20260504041514 | 38 | 17 | 0.0 | 4.3 | 0.02 | 0.14 | 0.00 | 94 | 1007.8 |
| 20260504041003 | 38 | 275 | 1.7 | 6.1 | 0.03 | 0.14 | 0.00 | 93 | 1007.8 |
| 20260504040504 | 38 | 215 | 1.7 | 6.1 | 0.03 | 0.14 | 0.00 | 93 | 1007.8 |
| 20260504040018 | 38 | 249 | 0.0 | 7.0 | 0.04 | 0.14 | 0.00 | 94 | 1007.9 |
| 20260504035511 | 38 | 253 | 2.6 | 7.0 | 0.05 | 0.14 | 0.14 | 93 | 1007.8 |
| 20260504035013 | 38 | 271 | 1.7 | 4.3 | 0.05 | 0.14 | 0.14 | 93 | 1007.8 |
| 20260504034526 | 38 | 259 | 0.9 | 6.1 | 0.06 | 0.14 | 0.14 | 93 | 1007.8 |
| 20260504034010 | 38 | 229 | 1.7 | 6.1 | 0.06 | 0.13 | 0.13 | 93 | 1007.9 |
| 20260504033504 | 38 | 243 | 1.7 | 5.2 | 0.07 | 0.13 | 0.13 | 93 | 1007.8 |
| 20260504033025 | 38 | 278 | 1.7 | 7.0 | 0.08 | 0.13 | 0.13 | 93 | 1007.9 |
| 20260504032508 | 38 | 257 | 3.5 | 7.0 | 0.08 | 0.13 | 0.13 | 93 | 1008.1 |
| 20260504032013 | 38 | 332 | 2.6 | 7.8 | 0.07 | 0.12 | 0.12 | 92 | 1008.1 |
| 20260504031524 | 38 | 268 | 2.6 | 7.8 | 0.08 | 0.12 | 0.12 | 92 | 1008.2 |
| 20260504031007 | 38 | 200 | 2.6 | 7.8 | 0.07 | 0.11 | 0.11 | 92 | 1008.2 |
| 20260504030511 | 38 | 270 | 2.6 | 9.6 | 0.08 | 0.11 | 0.11 | 91 | 1008.3 |
| 20260504030017 | 38 | 259 | 1.7 | 9.6 | 0.07 | 0.10 | 0.10 | 91 | 1008.3 |
| 20260504025504 | 38 | 261 | 2.6 | 7.8 | 0.07 | 0.09 | 0.09 | 91 | 1008.4 |
| 20260504025007 | 38 | 286 | 2.6 | 7.8 | 0.07 | 0.09 | 0.09 | 91 | 1008.5 |
| 20260504024523 | 38 | 325 | 0.9 | 8.7 | 0.06 | 0.08 | 0.08 | 91 | 1008.4 |
| 20260504024008 | 38 | 280 | 2.6 | 14.8 | 0.06 | 0.07 | 0.07 | 90 | 1008.5 |
| 20260504023505 | 38 | 279 | 4.3 | 14.8 | 0.05 | 0.06 | 0.06 | 90 | 1008.5 |
| 20260504023027 | 38 | 300 | 0.9 | 6.1 | 0.04 | 0.05 | 0.05 | 90 | 1008.5 |
| 20260504022508 | 38 | 323 | 1.7 | 10.4 | 0.04 | 0.05 | 0.05 | 90 | 1008.5 |
| 20260504022006 | 38 | 281 | 1.7 | 10.4 | 0.04 | 0.05 | 0.05 | 90 | 1008.5 |
| 20260504021528 | 38 | 229 | 0.9 | 7.0 | 0.03 | 0.04 | 0.04 | 89 | 1008.6 |
| 20260504021009 | 38 | 211 | 1.7 | 7.0 | 0.03 | 0.04 | 0.04 | 89 | 1008.7 |
| 20260504020507 | 38 | 325 | 2.6 | 7.0 | 0.02 | 0.03 | 0.03 | 88 | 1008.8 |
| 20260504020028 | 38 | 288 | 1.7 | 3.5 | 0.02 | 0.03 | 0.03 | 87 | 1008.7 |
| 20260504015508 | 38 | 257 | 1.7 | 3.5 | 0.01 | 0.02 | 0.02 | 87 | 1008.7 |
| 20260504015007 | 38 | 261 | 0.9 | 3.5 | 0.01 | 0.02 | 0.02 | 85 | 1008.7 |
| 20260504014538 | 39 | 236 | 0.0 | 3.5 | 0.01 | 0.02 | 0.02 | 85 | 1008.6 |
| 20260504014004 | 39 | 259 | 0.9 | 7.0 | 0.00 | 0.01 | 0.01 | 84 | 1008.8 |
| 20260504013510 | 39 | 281 | 2.6 | 7.8 | 0.00 | 0.01 | 0.01 | 83 | 1008.9 |
| 20260504013023 | 39 | 296 | 1.7 | 11.3 | 0.00 | 0.01 | 0.01 | 81 | 1009.0 |
| 20260504012515 | 40 | 321 | 4.3 | 11.3 | 0.00 | 0.01 | 0.01 | 78 | 1008.9 |
| 20260504012010 | 40 | 288 | 6.1 | 9.6 | 0.00 | 0.01 | 0.01 | 75 | 1008.8 |
| 20260504011506 | 41 | 326 | 3.5 | 8.7 | 0.00 | 0.01 | 0.01 | 76 | 1008.8 |
| 20260504011004 | 41 | 322 | 2.6 | 9.6 | 0.00 | 0.01 | 0.01 | 73 | 1008.7 |
| 20260504010505 | 41 | 260 | 4.3 | 9.6 | 0.00 | 0.01 | 0.01 | 72 | 1008.6 |
| 20260504010013 | 41 | 276 | 3.5 | 7.8 | 0.00 | 0.01 | 0.01 | 67 | 1008.6 |
| 20260504005505 | 41 | 325 | 1.7 | 10.4 | 0.00 | 0.01 | 0.01 | 66 | 1008.6 |
| 20260504005003 | 42 | 241 | 4.3 | 10.4 | 0.00 | 0.01 | 0.01 | 67 | 1008.6 |
| 20260504004512 | 42 | 283 | 2.6 | 12.2 | 0.00 | 0.01 | 0.01 | 65 | 1008.6 |
| 20260504004004 | 42 | 294 | 5.2 | 12.2 | 0.00 | 0.01 | 0.01 | 66 | 1008.6 |
| 20260504003507 | 42 | 283 | 6.1 | 13.0 | 0.00 | 0.01 | 0.01 | 64 | 1008.5 |
| 20260504003007 | 42 | 306 | 6.1 | 13.0 | 0.00 | 0.01 | 0.01 | 62 | 1008.5 |
| 20260504002504 | 42 | 286 | 4.3 | 11.3 | 0.00 | 0.01 | 0.01 | 60 | 1008.6 |
| 20260504002006 | 43 | 332 | 6.1 | 11.3 | 0.00 | 0.01 | 0.01 | 60 | 1008.5 |
| 20260504001503 | 43 | 267 | 4.3 | 11.3 | 0.00 | 0.01 | 0.01 | 57 | 1008.5 |
| 20260504001004 | 43 | 14 | 5.2 | 10.4 | 0.00 | 0.01 | 0.01 | 57 | 1008.4 |
| 20260504000504 | 43 | 284 | 6.1 | 10.4 | 0.00 | 0.01 | 0.01 | 55 | 1008.3 |
| 20260504000017 | 43 | 289 | 4.3 | 8.7 | 0.00 | 0.01 | 0.01 | 54 | 1008.3 |
| 20260503235505 | 43 | 284 | 4.3 | 8.7 | 0.00 | 0.01 | 0.01 | 53 | 1008.2 |
| 20260503235003 | 43 | 262 | 1.7 | 6.1 | 0.00 | 0.01 | 0.01 | 54 | 1008.3 |
| 20260503234509 | 43 | 301 | 2.6 | 6.1 | 0.00 | 0.01 | 0.01 | 52 | 1008.3 |
| 20260503234004 | 43 | 278 | 1.7 | 5.2 | 0.00 | 0.01 | 0.01 | 50 | 1008.2 |
| 20260503233504 | 43 | 304 | 2.6 | 6.1 | 0.00 | 0.01 | 0.01 | 51 | 1008.2 |
| 20260503233019 | 43 | 294 | 1.7 | 7.8 | 0.00 | 0.01 | 0.01 | 50 | 1008.1 |
| 20260503232505 | 43 | 294 | 2.6 | 7.8 | 0.00 | 0.01 | 0.01 | 51 | 1008.1 |
| 20260503232004 | 43 | 291 | 3.5 | 9.6 | 0.00 | 0.01 | 0.01 | 50 | 1008.1 |
| 20260503231512 | 43 | 272 | 4.3 | 9.6 | 0.00 | 0.01 | 0.01 | 50 | 1008.0 |
| 20260503231005 | 43 | 282 | 2.6 | 8.7 | 0.00 | 0.01 | 0.01 | 52 | 1008.1 |
| 20260503230509 | 43 | 331 | 3.5 | 9.6 | 0.00 | 0.01 | 0.01 | 51 | 1008.1 |
| 20260503230014 | 43 | 333 | 3.5 | 10.4 | 0.00 | 0.01 | 0.01 | 48 | 1008.1 |
| 20260503225506 | 43 | 317 | 3.5 | 12.2 | 0.00 | 0.01 | 0.01 | 48 | 1008.1 |
| 20260503225003 | 43 | 311 | 7.0 | 12.2 | 0.00 | 0.01 | 0.01 | 49 | 1008.1 |
| 20260503224504 | 44 | 292 | 2.6 | 13.9 | 0.00 | 0.01 | 0.01 | 46 | 1008.0 |
| 20260503224007 | 44 | 302 | 3.5 | 13.9 | 0.00 | 0.01 | 0.01 | 47 | 1008.1 |
| 20260503223504 | 45 | 331 | 7.8 | 13.9 | 0.00 | 0.01 | 0.01 | 45 | 1008.0 |
| 20260503223013 | 45 | 308 | 4.3 | 14.8 | 0.00 | 0.01 | 0.01 | 44 | 1008.0 |
| 20260503222504 | 45 | 298 | 6.1 | 14.8 | 0.00 | 0.01 | 0.01 | 44 | 1007.9 |
| 20260503222004 | 45 | 332 | 6.1 | 10.4 | 0.00 | 0.01 | 0.01 | 44 | 1007.9 |
| 20260503221519 | 45 | 274 | 5.2 | 15.6 | 0.00 | 0.01 | 0.01 | 44 | 1008.0 |
| 20260503221003 | 45 | 266 | 5.2 | 15.6 | 0.00 | 0.01 | 0.01 | 44 | 1007.9 |
| 20260503220508 | 45 | 273 | 5.2 | 13.9 | 0.00 | 0.01 | 0.01 | 44 | 1007.9 |
| 20260503220021 | 45 | 166 | 5.2 | 13.9 | 0.00 | 0.01 | 0.01 | 43 | 1007.9 |
| 20260503215510 | 46 | 274 | 4.3 | 12.2 | 0.00 | 0.01 | 0.01 | 44 | 1007.9 |
| 20260503215002 | 46 | 323 | 6.1 | 13.9 | 0.00 | 0.01 | 0.01 | 43 | 1008.0 |
| 20260503214518 | 46 | 327 | 7.0 | 18.2 | 0.00 | 0.01 | 0.01 | 44 | 1007.9 |
| 20260503214003 | 46 | 228 | 3.5 | 18.2 | 0.00 | 0.01 | 0.01 | 43 | 1007.8 |
| 20260503213509 | 46 | 300 | 7.0 | 14.8 | 0.00 | 0.01 | 0.01 | 45 | 1007.9 |
| 20260503213012 | 45 | 310 | 5.2 | 14.8 | 0.00 | 0.01 | 0.01 | 43 | 1007.9 |
| 20260503212504 | 46 | 27 | 7.0 | 12.2 | 0.00 | 0.01 | 0.01 | 44 | 1008.0 |
| 20260503212005 | 46 | 345 | 2.6 | 13.0 | 0.00 | 0.01 | 0.01 | 42 | 1007.9 |
| 20260503211509 | 46 | 279 | 3.5 | 13.0 | 0.00 | 0.01 | 0.01 | 41 | 1007.9 |
| 20260503211004 | 46 | 329 | 5.2 | 17.4 | 0.00 | 0.01 | 0.01 | 42 | 1007.9 |
| 20260503210507 | 46 | 5 | 7.0 | 17.4 | 0.00 | 0.01 | 0.01 | 42 | 1007.8 |
| 20260503210039 | 46 | 280 | 3.5 | 13.9 | 0.00 | 0.01 | 0.01 | 39 | 1007.6 |
| 20260503205503 | 46 | 261 | 4.3 | 13.9 | 0.00 | 0.01 | 0.01 | 40 | 1007.7 |
| 20260503205007 | 46 | 276 | 7.0 | 13.9 | 0.00 | 0.01 | 0.01 | 39 | 1007.8 |
| 20260503204525 | 46 | 292 | 6.1 | 14.8 | 0.00 | 0.01 | 0.01 | 37 | 1007.7 |
| 20260503204003 | 46 | 261 | 7.8 | 20.0 | 0.00 | 0.01 | 0.01 | 40 | 1007.7 |
| 20260503203506 | 46 | 226 | 6.1 | 19.1 | 0.00 | 0.01 | 0.01 | 36 | 1007.8 |
| 20260503203014 | 47 | 290 | 3.5 | 19.1 | 0.00 | 0.01 | 0.01 | 34 | 1007.8 |
| 20260503202504 | 47 | 290 | 5.2 | 13.0 | 0.00 | 0.01 | 0.01 | 38 | 1007.7 |
| 20260503202004 | 47 | 277 | 5.2 | 16.5 | 0.00 | 0.01 | 0.01 | 37 | 1007.7 |
| 20260503201513 | 46 | 261 | 3.5 | 17.4 | 0.00 | 0.01 | 0.01 | 38 | 1007.6 |
| 20260503201004 | 46 | 264 | 7.0 | 17.4 | 0.00 | 0.01 | 0.01 | 38 | 1007.7 |
| 20260503200509 | 46 | 259 | 7.8 | 14.8 | 0.00 | 0.01 | 0.01 | 44 | 1007.7 |
| 20260503200017 | 46 | 304 | 6.1 | 13.0 | 0.00 | 0.01 | 0.01 | 42 | 1007.7 |
| 20260503195509 | 46 | 303 | 7.8 | 13.9 | 0.00 | 0.01 | 0.01 | 42 | 1007.6 |
| 20260503195009 | 45 | 307 | 6.1 | 13.9 | 0.00 | 0.01 | 0.01 | 38 | 1007.7 |
| 20260503194512 | 46 | 264 | 6.1 | 13.0 | 0.00 | 0.01 | 0.01 | 41 | 1007.7 |
| 20260503194007 | 46 | 287 | 5.2 | 17.4 | 0.00 | 0.01 | 0.01 | 41 | 1007.9 |
| 20260503193508 | 46 | 296 | 7.0 | 17.4 | 0.00 | 0.01 | 0.01 | 41 | 1007.9 |
| 20260503193025 | 45 | 261 | 6.1 | 13.9 | 0.00 | 0.01 | 0.01 | 44 | 1007.9 |
| 20260503192504 | 45 | 309 | 3.5 | 13.0 | 0.00 | 0.01 | 0.01 | 41 | 1008.1 |
| 20260503192005 | 46 | 288 | 3.5 | 13.0 | 0.00 | 0.01 | 0.01 | 41 | 1008.2 |
| 20260503191510 | 45 | 288 | 5.2 | 13.9 | 0.00 | 0.01 | 0.01 | 43 | 1008.1 |
| 20260503191003 | 45 | 295 | 4.3 | 13.9 | 0.00 | 0.01 | 0.01 | 41 | 1008.2 |
| 20260503190506 | 45 | 325 | 5.2 | 13.9 | 0.00 | 0.01 | 0.01 | 46 | 1008.4 |
| 20260503190016 | 44 | 282 | 6.1 | 16.5 | 0.00 | 0.01 | 0.01 | 46 | 1008.5 |
| 20260503185504 | 44 | 317 | 5.2 | 16.5 | 0.00 | 0.01 | 0.01 | 46 | 1008.5 |
| 20260503185004 | 44 | 338 | 7.0 | 15.6 | 0.00 | 0.01 | 0.01 | 51 | 1008.5 |
| 20260503184527 | 44 | 274 | 4.3 | 15.6 | 0.00 | 0.01 | 0.01 | 48 | 1008.6 |
| 20260503184011 | 43 | 311 | 5.2 | 15.6 | 0.00 | 0.01 | 0.01 | 45 | 1008.5 |
| 20260503183511 | 43 | 316 | 7.0 | 13.0 | 0.00 | 0.01 | 0.01 | 46 | 1008.6 |
| 20260503183021 | 44 | 324 | 5.2 | 17.4 | 0.00 | 0.01 | 0.01 | 47 | 1008.6 |
| 20260503182507 | 43 | 327 | 6.1 | 17.4 | 0.00 | 0.01 | 0.01 | 44 | 1008.6 |
| 20260503182010 | 44 | 340 | 5.2 | 13.0 | 0.00 | 0.01 | 0.01 | 47 | 1008.7 |
| 20260503181514 | 44 | 298 | 5.2 | 13.0 | 0.00 | 0.01 | 0.01 | 45 | 1008.8 |
| 20260503181007 | 44 | 327 | 4.3 | 12.2 | 0.00 | 0.01 | 0.01 | 47 | 1008.8 |
| 20260503180504 | 43 | 319 | 4.3 | 11.3 | 0.00 | 0.01 | 0.01 | 49 | 1008.8 |
| 20260503180014 | 43 | 302 | 2.6 | 9.6 | 0.00 | 0.01 | 0.01 | 48 | 1008.8 |
| 20260503175503 | 42 | 326 | 3.5 | 18.2 | 0.00 | 0.01 | 0.01 | 50 | 1008.8 |
| 20260503175003 | 42 | 277 | 7.8 | 18.2 | 0.00 | 0.01 | 0.01 | 48 | 1008.9 |
| 20260503174517 | 43 | 296 | 5.2 | 11.3 | 0.00 | 0.01 | 0.01 | 50 | 1008.8 |
| 20260503174003 | 42 | 334 | 2.6 | 12.2 | 0.00 | 0.01 | 0.01 | 51 | 1008.8 |
| 20260503173505 | 41 | 251 | 5.2 | 13.0 | 0.00 | 0.02 | 0.01 | 52 | 1008.9 |
| 20260503173024 | 41 | 316 | 2.6 | 13.0 | 0.00 | 0.02 | 0.01 | 53 | 1008.9 |
| 20260503172509 | 41 | 315 | 4.3 | 10.4 | 0.00 | 0.02 | 0.01 | 53 | 1009.0 |
| 20260503172010 | 40 | 292 | 5.2 | 10.4 | 0.00 | 0.02 | 0.01 | 53 | 1009.0 |
| 20260503171523 | 40 | 281 | 5.2 | 10.4 | 0.00 | 0.02 | 0.01 | 52 | 1009.0 |
| 20260503171008 | 41 | 281 | 2.6 | 16.5 | 0.00 | 0.02 | 0.01 | 52 | 1009.0 |
| 20260503170504 | 40 | 316 | 4.3 | 16.5 | 0.00 | 0.02 | 0.01 | 54 | 1009.1 |
| 20260503151003 | 39 | 316 | 4.3 | 13.0 | 0.00 | 0.09 | 0.01 | 59 | 1009.8 |
| 20260503150503 | 39 | 285 | 3.5 | 13.0 | 0.00 | 0.09 | 0.01 | 57 | 1009.9 |
| 20260503131004 | 36 | 270 | 2.6 | 8.7 | 0.01 | 0.09 | 0.01 | 75 | 1010.1 |
| 20260503130503 | 36 | 338 | 3.5 | 7.8 | 0.01 | 0.09 | 0.01 | 73 | 1010.1 |
| 20260503110510 | 32 | 299 | 2.6 | 6.1 | 0.00 | 0.08 | 0.00 | 86 | 1009.7 |
| 20260503090505 | 32 | 303 | 1.7 | 7.0 | 0.00 | 0.08 | 0.00 | 90 | 1009.4 |
| 20260503081542 | 32 | 294 | 0.9 | 4.3 | 0.00 | 0.09 | 0.00 | 91 | 1009.6 |
| 20260503081007 | 32 | 308 | 0.9 | 3.5 | 0.00 | 0.09 | 0.00 | 91 | 1009.5 |
| 20260503080510 | 32 | 323 | 0.9 | 3.5 | 0.00 | 0.09 | 0.00 | 91 | 1009.5 |
| 20260503072508 | 32 | 295 | 0.9 | 2.6 | 0.00 | 0.09 | 0.00 | 90 | 1009.7 |